Regional Weather Roundup
Issued by NWS Wakefield, VA

Home | Current Version | Previous Version | Text Only | Print | Product List | Glossary On
Versions: 1 2 3 4 5 6 7 8 9 10 11 12 13 14 15 16 17 18 19 20 21 22 23 24 25 26 27
000
ASUS41 KAKQ 072211
RWRAKQ

REGIONAL WEATHER ROUNDUP
NATIONAL WEATHER SERVICE WAKEFIELD VA
500 PM EST TUE FEB 07 2023

Note: "fair" indicates few or no clouds below 12,000 feet with no
significant weather and/or obstructions to visibility. * = Denotes
station may not report precipitation (e.g., rain,snow,etc.),
thunder or fog.

VAZ042-051-052>054-056-072300-
NORTHERN VIRGINIA

CITY           SKY/WX    TMP DP  RH WIND       PRES   REMARKS
WASH NATIONAL  CLOUDY    48  33  56 S8        30.19F
DULLES         CLOUDY    51  31  46 S6        30.17F
FORT BELVOIR   CLOUDY    49  33  52 SE3       30.17F
QUANTICO       CLOUDY    49  37  63 S12       30.20F
FREDERICKSBRG* CLOUDY    54  32  43 S3        30.17F
STAFFORD*      CLOUDY    58  33  39 S8        30.19F
WARRENTON      CLOUDY    53  29  39 S6        30.18F
CULPEPER*      CLOUDY    54  31  42 S6        30.18F
MANASSAS*      CLOUDY    52  33  48 S7        30.18F
LEESBURG*      CLOUDY    50  34  53 S8        30.19F
WINCHESTER     MOCLDY    48  32  53 SE6       30.12F
FRONT ROYAL*   FAIR      52  32  46 N3        30.12F
LURAY*         FAIR      54  30  40 SW10      30.12S
$$

VAZ048-049-060>072-079>083-072300-
CENTRAL AND SOUTH CENTRAL VIRGINIA

CITY           SKY/WX    TMP DP  RH WIND       PRES   REMARKS
RICHMOND       CLOUDY    55  36  48 S7        30.23F
CHESTERFIELD*  FAIR      56  36  47 S13G20    30.23F
PETERSBURG*    PTCLDY    57  35  42 CALM      30.24F
HANOVER        PTCLDY    56  35  45 S12       30.22F
TAPPAHANNOCK*  PTCLDY    54  36  49 S8        30.23F
QUINTON*       FAIR      56  35  45 S5        30.24F
CHARLOTTSVILLE MOCLDY    57  31  37 S12       30.18F
GORDONSVILLE*  FAIR      54  34  48 S3        30.18F
ORANGE*        CLOUDY    52  32  46 S5        30.19F
LOUISA*        MOCLDY    56  32  40 S10       30.20S
BUMPASS*       FAIR      56  33  41 S6        30.20F
FARMVILLE*     PTCLDY    56  35  44 S5        30.20F
CREWE*         FAIR      58  28  31 SW6       30.22F
FORT PICKETT*  FAIR      58  35  41 SW10      30.23F
CHASE CITY*    FAIR      60  33  36 SW5       30.24F
CLARKSVILLE*   FAIR      61  36  39 S8        30.24F
SOUTH HILL*    CLEAR     60  36  40 S9        30.30F
LAWRENCEVILLE* FAIR      62  36  38 SW6       30.26S
EMPORIA*       CLEAR     59  36  43 SE7       30.28F
$$

VAZ088>098-072300-
SOUTHEAST VIRGINIA

CITY           SKY/WX    TMP DP  RH WIND       PRES   REMARKS
NORFOLK        PTCLDY    57  37  47 S10       30.26F
VIRGINIA BEACH PTCLDY    53  40  61 S5        30.27F
NORFOLK NAVAL  MOCLDY    57  36  45 SW6       30.27F
WEST POINT*    PTCLDY    53  37  54 CALM      30.25F
SALUDA*        FAIR      48  37  64 S8        30.25F
NEWPORT NEWS   PTCLDY    53  37  54 S5        30.26F
LANGLEY AFB    PTCLDY    52  39  61 SE7       30.25F
FORT EUSTIS    NOT AVBL
WILLIAMSBURG*  NOT AVBL
HR EXEC AP*    FAIR      54  36  50 MISG      30.28F
FRANKLIN*      PTCLDY    58  34  40 S7        30.28S
US460-WAKEFLD  PTCLDY    56  37  49 CALM      30.26F
$$

VAZ020-022-025-037-045-072300-
WEST CENTRAL AND SOUTHWEST VIRGINIA

CITY           SKY/WX    TMP DP  RH WIND       PRES   REMARKS
STAUNTON*      MOCLDY    53  32  45 S10       30.16F
WAYNESBORO*    FAIR      54  32  42 S7        30.15F
HOT SPRINGS VA MOCLDY    51  27  38 S7        30.18F
LYNCHBURG      MOCLDY    57  34  41 S6        30.21F
DANVILLE       PTCLDY    60  30  32 SW8       30.24F
SOUTH BOSTON*  FAIR      61  32  33 S9        30.24S
MARTINSVILLE   PTCLDY    59  26  28 SW7G17    30.25F
ROANOKE        CLOUDY    59  33  37 E8        30.20F
BLACKSBURG     MOCLDY    57  32  38 S10       30.22S
DUBLIN*        MOCLDY    56  34  42 S12G18    30.19S
MARION*        MOCLDY    57  23  26 W9        30.22S
HILLSVILLE*    MOCLDY    52  29  42 S7        30.21S
RICHLANDS*     FAIR      57  25  29 SW5       30.20S
WISE*          MOSUNNY   55  30  38 S12       30.21R
ABINGDON*      MOSUNNY   59  19  21 W12G17    30.20F
$$

MDZ021>025-VAZ099-100-072300-
SOUTHERN MARYLAND AND THE DELMARVA PENINSULA

CITY           SKY/WX    TMP DP  RH WIND       PRES   REMARKS
PATUXENT RIVER MOCLDY    47  36  65 SE9       30.21F
BAY BRIDGE APT CLOUDY    44  33  65 S7        30.22S
LEONARDTOWN    NOT AVBL
DOVER          MOCLDY    47  29  51 S9        30.20F
GEORGETOWN     MOCLDY    48  36  63 S8        30.23F
EASTON         CLEAR     45  34  65 SW10      30.25F
CAMBRIDGE      CLEAR     45  34  65 S9G15     30.22F
SALISBURY      PTCLDY    49  34  56 S10       30.23F
TANGIER        NOT AVBL
OCEAN CITY     PTCLDY    43  37  79 SW14G21   30.27F
WALLOPS ISLAND PTCLDY    42  36  79 S12       30.28F
ACCOMACK*      PTCLDY    42  33  70 S9        30.27F
$$

NCZ012>017-030>032-072300-
NORTH CENTRAL AND EASTERN NORTH CAROLINA

CITY           SKY/WX    TMP DP  RH WIND       PRES   REMARKS
ROANOKE RAPIDS FAIR      55  43  62 S8        30.28F
RALEIGH        MOCLDY    64  37  36 SW9       30.28F
ELIZABETH CITY PTCLDY    53  39  59 SE8       30.31S
AHOSKIE*       CLEAR     56  37  48 SW5       30.30S
EDENTON*       PTCLDY    56  46  66 CALM      30.31F
CURRITUCK*     PTCLDY    55  34  45 S7        30.30F
KILL DEVIL HLS PTCLDY    49  38  64 SE6       30.30F
MANTEO         PTCLDY    49  37  62 S7        30.33S
CAPE HATTERAS  CLEAR     54  44  69 S3        30.34S
TARBORO*       FAIR      61  37  41 S6        30.30S
GOLDSBORO      PTCLDY    64  36  36 S8        30.28R
WASHINGTON     PTCLDY    61  35  36 SW7       30.32S
GREENVILLE     PTCLDY    63  36  36 SW7       30.30S
NEW BERN       PTCLDY    63  37  38 S8        30.32F
WILMINGTON     CLEAR     64  39  39 SW12      30.32S
$$

VAZ048-072300-
ELSEWHERE

CITY           SKY/WX    TMP DP  RH WIND       PRES   REMARKS
HARRISBURG PA  CLOUDY    41  30  65 SE8       30.16S
BALTIMORE      CLOUDY    44  32  62 E8        30.19F
ANNAPOLIS      CLOUDY    43  33  68 S9        30.21F
ANDREWS AFB    CLOUDY    48  33  55 S8        30.16F
PHILADELPHIA   MOCLDY    43  30  60 S6        30.23S
HENDERSON NC   PTCLDY    55  32  41 S7        30.25F
GREENSBORO     CLOUDY    61  32  33 SW10      30.24F
ROCKY MOUNT    PTCLDY    62  38  40 S5        30.29F
$$

VAZ100-072300-
MARINE

STATION/POSITION TIME  TEMP    WIND        PRES    WAVE   SWELL
                       AIR SEA DIR/SP/G            HT/PER HT/PER
                 (UTC) (F)     (DEG/KT/KT) (MB)    (FT/S) (FT/S)
CAPE MAY NJ      2130   42     160/ 11/ 17 1024.0F
LEWES DE         2130   45 41  160/ 10/ 13 1023.5F
15NM E FENWICK I 2150   44 45  190/ 16/ 19 1023.9F
OCEAN-CITY-INLET 2130   43 43  220/ 15/ 18 1025.5F
44089 WALLOPS IS 2126      43                N/A     5/11   3/11
WACHAPREAGUE VA  2130   46 45  210/ 10/ 12 1024.9F
THOMAS POINT MD  2200   42     140/ 14/ 16 1023.8F
GOOSES REEF MD   2148   39 41  160/ 23/ 31 1025.8F   2/ 3
COVE POINT MD    2130   42     100/ 17/ 19 1023.7F
SOLOMONS ISLAND  2130   44 42  140/ 11/ 13 1022.0F
BISHOPS HEAD MD  2130   43 42  170/ 12/ 14 1024.0F
PINEY POINT MD   2130          170/ 12/ 14   N/A
POTOMAC MD       2142   41 42  160/ 14/ 19   N/A     1/ 2
CAMBRIDGE MD     2130   46 40  190/ 10/ 13 1023.5F
LEWISETTA VA     2130   47 42  160/  7/  9 1023.5F
RAPPAHANNOCK LGT 2130          140/ 12/ 13 1025.5F
STINGRAY PT      2142   42 43  180/ 12/ 16   N/A     1/17
YORK RVR RNG VA  2130   45     140/ 12/ 14 1024.8F
YORKTOWN VA      2130   56 44  210/  6/  8 1022.6F
JAMESTOWN VA     2148   52     190/  2/  4   N/A     0
DOMINION TERM VA 2130   50      90/  3/  4 1025.0F
KIPTOPEKE VA     2130      49  170/ 12/ 15   N/A
CHES BAY BRIDGE  2130   47     150/ 13/ 15 1023.1F
CAPE HENRY VA    2130   48     150/ 10/ 13 1025.4F
WILLOUBY STN VA  2130   47      80/  3/  3 1025.1F
S CRANEY ISL VA  2130   56     200/  9/ 11 1024.8F
CAPE HENRY BUOY  2156      47                N/A     5/12   3/12
1ST LANDING BUOY 2148   45 46  140/ 10/ 12 1029.2F   2/11
DUCK PIER NC     2130   49 48  140/  9/ 10 1026.3F
44100 DUCK FRF   2126      49                N/A     6/13   3/13
44056 DUCK FRF   2126      48                N/A     6/12   5/12
OREGON INLET NC  2130   50 48  180/  6/ 10 1027.0R
HATTERAS NC      2130   54 54   CALM  /  2 1027.7R
DIAMOND SHLS NC  2150      73  250/  8/ 12 1027.4F
$$



USA.gov is the U.S. government's official web portal to all federal, state and local government web resources and services.